Weather History for Afton Municipal Airport, WY

Change the Weather History Date:

Tuesday, January 21, 2014

  Actual Average Record
Temperature  
Mean Temperature -1 °F -  
Max Temperature 12 °F 29 °F 12 °F (2014)
Min Temperature -14 °F 4 °F -14 °F (2014)
Degree Days  
Heating Degree Days 66    
Moisture  
Dew Point -5 °F    
Average Humidity 80    
Maximum Humidity 92    
Minimum Humidity 67    
Precipitation  
Precipitation 0.00 in - - ()
Sea Level Pressure  
Sea Level Pressure 30.41 in    
Wind  
Wind Speed 0 mph (NNW)    
Max Wind Speed 4 mph    
Max Gust Speed -    
Visibility 9 miles    
Events      
Averages and records for this station are not official NWS values.
T = Trace of Precipitation, MM = Missing Value Source: NWS Daily Summary

Daily Weather History Graph

Daily Weather History Graph

Search for Another Location

Airport:

Trip Planner

Search our weather history database for the weather conditions in past years. The results will help you decide how hot, cold, wet, or windy it might be!

Date:

Astronomy

Jan. 21, 2014 Rise Set
Actual Time 7:47 AM MST 5:22 PM MST
Civil Twilight 7:16 AM MST 5:53 PM MST
Nautical Twilight 6:42 AM MST 6:28 PM MST
Astronomical Twilight 6:08 AM MST 7:01 PM MST
Moon 11:08 PM MST (1/21) 10:11 AM MST (1/21)
Length of Visible Light 10h 36m
Length of Day
9h 35m
Waning Gibbous, 74% of the Moon is Illuminated
Jan 21
Waning Gibbous
Jan 23
Last Quarter
Jan 30
New
Feb 6
First Quarter
Feb 14
Full

Hourly Weather History & Observations

Time (MST) Temp. Windchill Dew Point Humidity Pressure Visibility Wind Dir Wind Speed Gust Speed Precip Events Conditions
12:15 AM -4.0 °F - -5.8 °F 92% 30.52 in 7.0 mi Calm Calm - N/A   Clear
12:35 AM -2.2 °F - -5.8 °F 85% 30.52 in 7.0 mi Calm Calm - N/A   Clear
12:55 AM -5.8 °F - -9.4 °F 84% 30.51 in 7.0 mi Calm Calm - N/A   Clear
1:15 AM -5.8 °F - -9.4 °F 84% 30.51 in 7.0 mi Calm Calm - N/A   Clear
1:35 AM -4.0 °F - -5.8 °F 92% 30.51 in 7.0 mi Calm Calm - N/A   Clear
1:55 AM -4.0 °F - -5.8 °F 92% 30.51 in 10.0 mi Calm Calm - N/A   Clear
2:15 AM -4.0 °F - -7.6 °F 85% 30.51 in 10.0 mi Calm Calm - N/A   Clear
2:35 AM -4.0 °F - -7.6 °F 85% 30.51 in 10.0 mi Calm Calm - N/A   Clear
2:55 AM -4.0 °F - -7.6 °F 85% 30.52 in 10.0 mi Calm Calm - N/A   Clear
3:15 AM -5.8 °F - -9.4 °F 84% 30.52 in 10.0 mi Calm Calm - N/A   Clear
3:35 AM -7.6 °F -16.5 °F -13.0 °F 77% 30.51 in 10.0 mi SSW 3.5 mph - N/A   Clear
3:55 AM -9.4 °F - -14.8 °F 77% 30.50 in 10.0 mi Calm Calm - N/A   Clear
4:15 AM -5.8 °F -14.5 °F -9.4 °F 84% 30.49 in 10.0 mi NNW 3.5 mph - N/A   Clear
4:35 AM -5.8 °F - -9.4 °F 84% 30.49 in 10.0 mi Calm Calm - N/A   Clear
4:55 AM -11.2 °F - -16.6 °F 77% 30.48 in 10.0 mi Calm Calm - N/A   Clear
5:15 AM -11.2 °F - -16.6 °F 77% 30.49 in 10.0 mi Calm Calm - N/A   Clear
5:35 AM -13.0 °F - -16.6 °F 84% 30.49 in 10.0 mi Calm Calm - N/A   Clear
5:55 AM -13.0 °F - -18.4 °F 77% 30.49 in 10.0 mi Calm Calm - N/A   Clear
6:15 AM -13.0 °F - -16.6 °F 84% 30.48 in 10.0 mi Calm Calm - N/A   Clear
6:35 AM -13.0 °F - -16.6 °F 84% 30.49 in 10.0 mi Calm Calm - N/A   Clear
6:55 AM -9.4 °F - -13.0 °F 84% 30.49 in 10.0 mi Calm Calm - N/A   Clear
7:15 AM -9.4 °F - -14.8 °F 77% 30.49 in 10.0 mi Calm Calm - N/A   Clear
7:35 AM -9.4 °F - -14.8 °F 77% 30.48 in 10.0 mi Calm Calm - N/A   Clear
7:55 AM -9.4 °F - -14.8 °F 77% 30.49 in 10.0 mi Calm Calm - N/A   Clear
8:15 AM -11.2 °F - -16.6 °F 77% 30.49 in 7.0 mi Calm Calm - N/A   Clear
8:35 AM -14.8 °F - -20.2 °F 77% 30.49 in 7.0 mi Calm Calm - N/A   Clear
8:55 AM -14.8 °F - -20.2 °F 77% 30.49 in 3.0 mi Calm Calm - N/A   Haze
9:15 AM -13.0 °F - -16.6 °F 84% 30.49 in 5.0 mi Calm Calm - N/A   Haze
9:35 AM -7.6 °F - -13.0 °F 77% 30.48 in 7.0 mi Calm Calm - N/A   Clear
9:55 AM -5.8 °F - -11.2 °F 77% 30.47 in 5.0 mi Calm Calm - N/A   Haze
10:15 AM -4.0 °F - -7.6 °F 85% 30.48 in 7.0 mi North - - N/A   Clear
10:35 AM -0.4 °F - -5.8 °F 78% 30.47 in 7.0 mi Calm Calm - N/A   Clear
10:55 AM 1.4 °F - -4.0 °F 78% 30.46 in 10.0 mi Calm Calm - N/A   Clear
11:15 AM 1.4 °F - -4.0 °F 78% 30.45 in 10.0 mi Calm Calm - N/A   Clear
11:35 AM 3.2 °F - -0.4 °F 85% 30.45 in 10.0 mi Calm Calm - N/A   Clear
11:55 AM 3.2 °F - -0.4 °F 85% 30.44 in 10.0 mi North - - N/A   Clear
12:15 PM 5.0 °F - 1.4 °F 85% 30.43 in 10.0 mi Calm Calm - N/A   Clear
12:35 PM 5.0 °F - 1.4 °F 85% 30.42 in 10.0 mi Calm Calm - N/A   Clear
12:55 PM 5.0 °F - 1.4 °F 85% 30.40 in 10.0 mi Calm Calm - N/A   Clear
1:15 PM 8.6 °F - 3.2 °F 79% 30.39 in 10.0 mi Calm Calm - N/A   Clear
1:35 PM 8.6 °F - 5.0 °F 85% 30.37 in 10.0 mi Calm Calm - N/A   Clear
1:55 PM 10.4 °F - 3.2 °F 73% 30.37 in 7.0 mi Calm Calm - N/A   Clear
2:15 PM 10.4 °F - 3.2 °F 73% 30.36 in 10.0 mi Calm Calm - N/A   Clear
2:35 PM 10.4 °F - 3.2 °F 73% 30.36 in 10.0 mi Calm Calm - N/A   Clear
2:55 PM 10.4 °F - 3.2 °F 73% 30.35 in 10.0 mi Calm Calm - N/A   Clear
3:15 PM 12.2 °F - 3.2 °F 67% 30.34 in 10.0 mi Calm Calm - N/A   Clear
3:35 PM 12.2 °F - 3.2 °F 67% 30.35 in 10.0 mi Calm Calm - N/A   Clear
3:55 PM 12.2 °F - 3.2 °F 67% 30.35 in 10.0 mi Calm Calm - N/A   Clear
4:15 PM 12.2 °F - 3.2 °F 67% 30.34 in 10.0 mi Calm Calm - N/A   Clear
4:35 PM 12.2 °F - 3.2 °F 67% 30.33 in 10.0 mi Calm Calm - N/A   Clear
4:55 PM 10.4 °F - 3.2 °F 73% 30.32 in 10.0 mi Calm Calm - N/A   Clear
5:15 PM 10.4 °F - 3.2 °F 73% 30.32 in 10.0 mi Calm Calm - N/A   Clear
5:35 PM 5.0 °F - 1.4 °F 85% 30.33 in 10.0 mi Calm Calm - N/A   Clear
5:55 PM 6.8 °F - 1.4 °F 79% 30.34 in 10.0 mi North - - N/A   Clear
6:15 PM 5.0 °F - -0.4 °F 78% 30.33 in 10.0 mi Calm Calm - N/A   Clear
6:35 PM 3.2 °F - -0.4 °F 85% 30.33 in 10.0 mi Calm Calm - N/A   Clear
6:55 PM 3.2 °F - -2.2 °F 78% 30.32 in 7.0 mi Calm Calm - N/A   Clear
7:15 PM 5.0 °F - 1.4 °F 85% 30.33 in 7.0 mi Calm Calm - N/A   Clear
7:35 PM 3.2 °F - -2.2 °F 78% 30.32 in 7.0 mi Calm Calm - N/A   Clear
7:55 PM 1.4 °F - -2.2 °F 85% 30.32 in 7.0 mi Calm Calm - N/A   Clear
8:15 PM 1.4 °F - -4.0 °F 78% 30.31 in 7.0 mi Calm Calm - N/A   Clear
8:35 PM 3.2 °F -4.2 °F -0.4 °F 85% 30.31 in 7.0 mi NNE 3.5 mph - N/A   Clear
8:55 PM 3.2 °F - -0.4 °F 85% 30.31 in 7.0 mi Calm Calm - N/A   Clear
9:15 PM 3.2 °F - -4.0 °F 72% 30.30 in 7.0 mi Calm Calm - N/A   Clear
9:35 PM 1.4 °F - -2.2 °F 85% 30.30 in 10.0 mi North - - N/A   Clear
9:55 PM 1.4 °F - -4.0 °F 78% 30.30 in 10.0 mi Calm Calm - N/A   Clear
10:15 PM 1.4 °F - -2.2 °F 85% 30.30 in 10.0 mi Calm Calm - N/A   Clear
10:35 PM 1.4 °F - -2.2 °F 85% 30.30 in 7.0 mi Calm Calm - N/A   Clear
10:55 PM 1.4 °F - -2.2 °F 85% 30.30 in 7.0 mi Calm Calm - N/A   Clear
11:15 PM 3.2 °F - -0.4 °F 85% 30.30 in 5.0 mi Calm Calm - N/A   Clear
11:35 PM 1.4 °F - -2.2 °F 85% 30.30 in 7.0 mi Calm Calm - N/A   Clear
11:55 PM 1.4 °F - -2.2 °F 85% 30.30 in 5.0 mi Calm Calm - N/A   Clear